Location: *
(46.4000°N, 12.6667°E)
Time: 17:41:51
(UTC+00:00)

Envisat - Pass Details

Date: 03 December 2021
Orbit: 764 x 766 km, 98.2° (Epoch: 16 January)

Event Time Altitude Azimuth Distance (km) Brightness Sun altitude
Rises 04:28:07 0° 12° (NNE) 3,245 6.3 -21.0°
Reaches altitude 10° 04:30:26 10° 10° (N) 2,314 5.5 -20.6°
Maximum altitude 04:35:31 75° 286° (WNW) 796 2.9 -19.8°
Drops below altitude 10° 04:40:34 10° 202° (SSW) 2,296 5.4 -18.9°
Sets 04:42:51 0° 201° (SSW) 3,217 6.2 -18.5°
